Location: Gunung Kajang
(2.4167°N, 113.7167°E)
Time: 22:37:15
(UTC+00:00)

CZ-4C R/B - Pass Details

Date: 29 May 2022
Orbit: 462 x 625 km, 98.1° (Epoch: 24 June)

Event Time Altitude Azimuth Distance (km) Brightness Sun altitude
Rises 21:19:21 0° 177° (S) 2,491 6.5 -13.7°
Reaches altitude 10° 21:21:25 10° 183° (S) 1,622 5.5 -13.3°
Maximum altitude 21:24:46 49° 258° (WSW) 623 3.2 -12.5°
Drops below altitude 10° 21:28:13 10° 334° (NNW) 1,668 5.8 -11.7°
Sets 21:30:22 0° 340° (NNW) 2,571 6.8 -11.2°
